Weather reports worldwide

Advertisment
Nimes-Garons, France (7646): temperature & dewpoint: 01.08.2020 02:00:00 - 07.08.2020 02:00:00 (CEST)Nimes-Garons, France (7646): wind speed & gusts: 01.08.2020 02:00:00 - 07.08.2020 02:00:00 (CEST)Nimes-Garons, France (7646): wind direction: 01.08.2020 02:00:00 - 07.08.2020 02:00:00 (CEST)Nimes-Garons, France (7646): reduced air pressure: 01.08.2020 02:00:00 - 07.08.2020 02:00:00 (CEST)Nimes-Garons, France (7646): visibility: 01.08.2020 02:00:00 - 07.08.2020 02:00:00 (CEST)Nimes-Garons, France (7646): precipitation: 01.08.2020 02:00:00 - 07.08.2020 02:00:00 (CEST)
Date & Time tt [°C] td [°C] ff [km/h] ff [kn] fx [km/h] fx [kn] dd ppp [hPa] vv [km] rr [mm]
07.08.2020 02:00:00 19,2 16,2 8 5 10 6 SE 1018,2 45 0,0
07.08.2020 01:00:00 20,4 16,4 6 4 10 5 SE 1018,2 60 0,0
07.08.2020 00:00:00 20,5 16,5 6 4 10 5 S 1017,8 60 0,0
06.08.2020 23:00:00 20,4 16,4 7 4 14 7 S 1017,3 60 0,0
06.08.2020 22:00:00 22,2 14,3 9 5 18 10 S 1016,9 60 0,0
06.08.2020 21:00:00 23,7 13,6 12 6 27 15 S 1016,1 60 0,0
06.08.2020 20:00:00 27,8 15,1 15 8 24 13 S 1015,3 59 0,0
06.08.2020 19:00:00 30,8 12,7 16 9 29 16 S 1014,8 57 0,0
06.08.2020 18:00:00 32,0 12,8 17 9 31 17 S 1014,7 52 0,0
06.08.2020 17:00:00 32,0 13,2 17 9 32 18 SSW 1014,6 56 0,0
06.08.2020 16:00:00 32,8 13,4 13 7 31 17 SSW 1014,6 60 0,0
06.08.2020 15:00:00 33,9 7,0 11 6 37 20 NNE 1014,9 60 0,0
06.08.2020 14:00:00 32,8 8,9 12 6 28 15 N 1015,3 60 0,0
06.08.2020 13:00:00 31,5 9,7 12 6 29 15 NNE 1015,5 20 0,0
06.08.2020 12:00:00 30,6 10,5 18 10 34 18 NE 1015,7 60 0,0
06.08.2020 11:00:00 28,8 10,5 17 9 29 16 NE 1016,0 60 0,0
06.08.2020 10:00:00 26,7 10,0 15 8 25 14 NNE 1016,1 60 0,0
06.08.2020 09:00:00 23,6 8,4 12 7 21 11 NNE 1016,0 60 0,0
06.08.2020 08:00:00 21,4 9,0 8 5 14 8 NE 1015,7 60 0,0
06.08.2020 07:00:00 18,0 8,8 7 4 14 8 NNE 1015,7 45 0,0
06.08.2020 06:00:00 18,3 8,8 8 5 13 7 NE 1015,4 60 0,0
06.08.2020 05:00:00 16,4 9,1 5 3 7 4 N 1015,2 60 0,0
06.08.2020 04:00:00 18,1 8,9 3 2 7 4 NW 1015,2 60 0,0
06.08.2020 03:00:00 18,8 8,7 7 4 11 6 W 1015,2 60 0,0
06.08.2020 02:00:00 19,6 8,6 6 3 12 6 NW 1015,1 60 0,0
06.08.2020 01:00:00 20,5 8,5 3 2 13 7 SW 1014,9 60 0,0
06.08.2020 00:00:00 21,3 8,9 9 5 13 7 W 1015,0 60 0,0
05.08.2020 23:00:00 21,9 9,8 8 5 11 6 W 1014,8 60 0,0
05.08.2020 22:00:00 22,4 9,5 5 3 7 4 SW 1014,4 20 0,0
05.08.2020 21:00:00 24,6 10,1 5 3 21 12 SSW 1013,5 60 0,0
05.08.2020 20:00:00 27,0 10,2 11 6 29 16 SSW 1012,9 60 0,0
05.08.2020 19:00:00 28,7 10,4 14 7 31 17 SSW 1012,3 51 0,0
05.08.2020 18:00:00 31,9 4,6 10 6 32 17 ENE 1011,9 60 0,0
05.08.2020 17:00:00 31,7 4,5 14 8 34 18 NNE 1012,0 60 0,0
05.08.2020 16:00:00 31,3 4,1 19 11 35 19 NE 1012,2 53 0,0
05.08.2020 15:00:00 30,6 5,1 17 9 44 24 NNE 1012,5 56 0,0
05.08.2020 14:00:00 29,6 5,0 21 11 44 24 NNE 1013,0 55 0,0
05.08.2020 13:00:00 28,2 6,3 24 13 46 25 NNE 1013,1 45 0,0
05.08.2020 12:00:00 27,2 7,1 25 14 54 29 NNE 1013,3 50 0,0
05.08.2020 11:00:00 25,6 8,1 28 15 48 26 NNE 1013,1 43 0,0
05.08.2020 10:00:00 24,3 8,7 29 16 48 26 NNE 1013,2 38 0,0
05.08.2020 09:00:00 22,4 8,9 26 14 45 24 N 1013,1 41 0,0
05.08.2020 08:00:00 20,9 8,5 23 12 43 23 N 1012,8 42 0,0
05.08.2020 07:00:00 19,7 8,1 24 13 42 23 N 1012,2 28 0,0
05.08.2020 06:00:00 19,0 8,0 13 7 27 14 N 1012,4 60 0,0
05.08.2020 05:00:00 18,0 8,3 12 7 35 19 N 1012,3 60 0,0
05.08.2020 04:00:00 20,0 8,3 20 11 39 21 N 1012,0 60 0,0
05.08.2020 03:00:00 20,2 7,9 17 9 32 18 NNW 1012,0 60 0,0
05.08.2020 02:00:00 20,8 7,8 20 11 45 25 NNW 1012,5 60 0,0
05.08.2020 01:00:00 21,7 7,5 28 15 48 26 NNW 1012,4 60 0,0
05.08.2020 00:00:00 22,3 7,3 22 12 43 23 NNW 1012,6 60 0,0
04.08.2020 23:00:00 22,8 7,3 18 10 35 19 NNW 1012,5 60 0,0
04.08.2020 22:00:00 23,0 7,1 13 7 54 29 N 1012,8 60 0,0
04.08.2020 21:00:00 24,5 7,2 24 13 56 31 NNW 1012,3 60 0,0
04.08.2020 20:00:00 25,7 6,3 29 16 60 33 N 1011,8 42 0,0
04.08.2020 19:00:00 26,7 6,7 33 18 64 34 N 1011,5 17 0,0
04.08.2020 18:00:00 27,6 6,4 35 19 64 35 N 1011,2 15 0,0
04.08.2020 17:00:00 27,9 6,6 37 20 67 36 N 1011,3 15 0,0
04.08.2020 16:00:00 27,5 6,3 40 21 74 40 N 1011,4 18 0,0
04.08.2020 15:00:00 26,7 6,7 41 22 76 41 N 1011,6 19 0,0
04.08.2020 14:00:00 26,3 6,3 43 23 77 41 N 1011,7 21 0,0
04.08.2020 13:00:00 25,6 6,2 44 24 72 39 N 1012,1 25 0,0
04.08.2020 12:00:00 25,1 6,8 34 18 70 38 N 1012,3 31 0,0
04.08.2020 11:00:00 23,9 6,6 31 17 55 30 N 1012,9 34 0,0
04.08.2020 10:00:00 22,6 6,4 32 17 51 28 NNW 1012,9 40 0,0
04.08.2020 09:00:00 21,3 7,1 27 15 49 27 NNW 1013,3 48 0,0
04.08.2020 08:00:00 20,2 7,5 20 11 42 23 NW 1013,1 55 0,0
04.08.2020 07:00:00 18,7 7,8 21 12 37 20 NNW 1013,1 33 0,0
04.08.2020 06:00:00 18,9 8,2 16 9 34 19 WNW 1012,9 60 0,0
04.08.2020 05:00:00 18,8 8,7 15 8 31 17 NW 1012,9 60 0,0
04.08.2020 04:00:00 19,0 8,9 15 8 29 16 NW 1013,2 60 0,0
04.08.2020 03:00:00 19,4 9,0 14 8 25 14 WNW 1013,3 60 0,0
04.08.2020 02:00:00 19,0 8,6 12 7 25 13 NW 1013,5 59 0,0
04.08.2020 01:00:00 17,3 9,2 11 6 21 12 N 1014,0 60 0,0
04.08.2020 00:00:00 19,2 9,7 9 5 23 12 N 1013,4 60 0,0
03.08.2020 23:00:00 20,9 7,8 17 9 43 23 N 1012,8 60 0,0
03.08.2020 22:00:00 22,6 7,6 23 12 44 24 NNW 1012,0 60 0,0
03.08.2020 21:00:00 23,2 7,3 24 13 51 28 N 1011,1 60 0,0
03.08.2020 20:00:00 25,2 7,3 34 18 65 35 NNW 1010,5 33 0,0
03.08.2020 19:00:00 26,6 7,6 39 21 69 37 NNW 1009,8 24 0,0
03.08.2020 18:00:00 28,1 7,3 35 19 64 34 NNW 1009,4 26 0,0
03.08.2020 17:00:00 29,3 6,0 29 16 64 34 NNW 1008,9 32 0,0
03.08.2020 16:00:00 29,9 5,9 29 16 62 33 NNW 1008,9 26 0,0
03.08.2020 15:00:00 29,5 4,9 36 20 64 34 NNW 1009,5 27 0,0
03.08.2020 14:00:00 29,0 7,0 32 17 61 33 NNW 1010,1 34 0,0
03.08.2020 13:00:00 29,2 9,8 27 14 48 26 NNW 1010,6 42 0,0
03.08.2020 12:00:00 27,7 10,4 25 13 51 27 NNW 1010,8 45 0,0
03.08.2020 11:00:00 27,1 11,9 24 13 42 23 NNW 1011,2 54 0,0
03.08.2020 10:00:00 25,2 12,1 19 10 36 19 NNW 1011,6 60 0,0
03.08.2020 09:00:00 23,2 11,9 11 6 27 15 NW 1011,8 59 0,0
03.08.2020 08:00:00 22,4 12,6 12 7 27 15 NW 1011,5 60 0,0
03.08.2020 07:00:00 21,9 13,0 12 7 27 15 NW 1011,4 60 0,0
03.08.2020 06:00:00 22,1 12,6 17 9 31 17 NW 1011,1 60 0,0
03.08.2020 05:00:00 22,4 12,6 13 7 24 13 NW 1011,1 60 0,0
03.08.2020 04:00:00 22,6 12,8 13 7 30 16 WNW 1011,5 60 0,0
03.08.2020 03:00:00 22,8 12,4 15 8 27 14 WNW 1011,5 60 0,0
03.08.2020 02:00:00 23,3 12,6 17 9 34 18 NW 1012,0 60 0,0
03.08.2020 01:00:00 23,9 15,7 13 7 27 15 NW 1012,1 60 0,0
03.08.2020 00:00:00 24,5 16,0 13 7 33 18 NNW 1012,2 60 0,0
02.08.2020 23:00:00 24,9 16,6 13 7 26 14 NNW 1012,2 60 0,0
02.08.2020 22:00:00 25,3 16,4 14 7 33 18 NNW 1011,6 60 0,0
02.08.2020 21:00:00 26,5 16,4 20 11 41 22 N 1010,8 60 0,0
02.08.2020 20:00:00 28,4 16,7 20 11 35 19 NE 1010,3 60 0,0
02.08.2020 19:00:00 30,8 16,4 16 9 36 19 NNE 1009,9 58 0,0
02.08.2020 18:00:00 32,7 16,1 20 11 39 21 N 1009,9 60 0,0
02.08.2020 17:00:00 33,1 14,7 21 11 38 21 N 1010,2 60 0,0
02.08.2020 16:00:00 32,6 15,6 19 10 39 21 N 1010,5 39 0,0
02.08.2020 15:00:00 33,4 15,9 16 9 43 23 NNW 1011,3 42 0,0
02.08.2020 14:00:00 33,3 15,8 18 10 39 21 NNW 1011,7 44 0,0
02.08.2020 13:00:00 32,1 15,6 19 10 40 22 NNW 1012,2 48 0,0
02.08.2020 12:00:00 30,7 16,3 19 10 44 24 NNW 1012,7 55 0,0
02.08.2020 11:00:00 30,3 16,7 25 13 43 23 NNW 1012,6 60 0,0
02.08.2020 10:00:00 29,5 16,7 19 10 34 19 NNW 1012,8 60 0,0
02.08.2020 09:00:00 26,3 16,8 16 9 31 17 NNW 1013,0 60 0,0
02.08.2020 08:00:00 25,0 17,0 12 6 29 16 NW 1013,2 59 0,0
02.08.2020 07:00:00 23,2 16,5 14 7 23 13 NW 1013,0 54 0,0
02.08.2020 06:00:00 23,1 16,4 13 7 28 15 NW 1012,6 60 0,0
02.08.2020 05:00:00 23,0 16,3 16 9 31 17 WNW 1012,6 60 0,0
02.08.2020 04:00:00 23,2 15,8 16 8 27 15 NW 1012,7 60 0,0
02.08.2020 03:00:00 23,6 15,9 15 8 24 13 NW 1013,1 60 0,0
02.08.2020 02:00:00 21,9 16,2 9 5 19 10 N 1013,5 57 0,0
02.08.2020 01:00:00 24,9 16,3 12 7 23 12 NW 1012,8 60 0,0
02.08.2020 00:00:00 24,2 16,2 8 5 22 12 NNW 1012,6 60 0,0
01.08.2020 23:00:00 26,0 16,3 13 7 23 13 NW 1012,8 60 0,0
01.08.2020 22:00:00 25,2 16,9 12 7 28 15 N 1012,8 60 0,0
01.08.2020 21:00:00 25,3 18,0 10 5 36 20 NE 1013,0 50 0,0
01.08.2020 20:00:00 26,4 16,9 25 13 68 37 NNE 1013,1 20 0,0
01.08.2020 19:00:00 36,2 15,9 18 10 44 24 WSW 1010,1 50 0,0
01.08.2020 18:00:00 37,2 18,2 22 12 41 22 SW 1010,1 48 0,0
01.08.2020 17:00:00 37,7 18,7 18 10 38 20 SSW 1010,5 56 0,0
01.08.2020 16:00:00 38,3 20,6 20 11 35 19 SSW 1010,7 60 0,0
01.08.2020 15:00:00 39,2 17,3 7 4 21 11 SSW 1011,3 60 0,0
01.08.2020 14:00:00 38,1 15,3 7 4 22 12 NNE 1012,1 19 0,0
01.08.2020 13:00:00 36,4 16,0 10 5 19 11 NE 1012,9 60 0,0
01.08.2020 12:00:00 34,1 16,5 9 5 20 11 NNE 1013,6 60 0,0
01.08.2020 11:00:00 32,0 16,3 6 3 14 8 NW 1013,9 59 0,0
01.08.2020 10:00:00 29,7 17,8 7 4 14 8 NE 1014,2 53 0,0
01.08.2020 09:00:00 27,3 18,9 6 3 10 5 NE 1014,5 51 0,0
01.08.2020 08:00:00 24,2 19,3 3 2 5 3 N 1014,5 44 0,0
01.08.2020 07:00:00 21,6 18,8 2 1 5 3 NW 1014,7 38 0,0
01.08.2020 06:00:00 20,5 18,4 5 3 8 4 N 1014,5 35 0,0
01.08.2020 05:00:00 21,4 19,5 7 4 10 5 NW 1014,4 36 0,0
01.08.2020 04:00:00 21,2 19,1 6 4 9 5 WNW 1014,6 34 0,0
01.08.2020 03:00:00 21,5 18,7 6 4 9 5 WNW 1015,0 42 0,0
01.08.2020 02:00:00 22,7 19,5 4 2 8 4 WSW 1015,2 45 0,0

tt = temperature
td = dewpoint
ff = wind speed
fx = gusts
dd = wind direction
ppp = reduced air pressure
vv = visibility
rr = precipitation

Next stations